DW4577 Weather Reports


Display with metric or nautical units.
time (UTC)temp
F
wind
direction
speed
MPH
gust
MPH
rain 1hr
in
rain 24hr
in
rain mn
in
humidity
%
barometer
mb
20260510191508 67 12 2.0 8.0 0.00 0.10 0.01 60 1013.9
20260510190019 67 360 3.0 12.0 0.00 0.10 0.01 59 1013.7
20260510184506 68 360 7.0 14.0 0.00 0.13 0.01 56 1013.5
20260510183004 68 360 6.0 12.0 0.00 0.13 0.01 55 1013.5
20260510181514 69 360 10.0 17.0 0.00 0.13 0.01 54 1013.3
20260510180006 70 360 7.0 16.0 0.00 0.13 0.01 53 1013.4
20260510174502 70 360 9.0 16.0 0.00 0.13 0.01 51 1013.2
20260510173107 71 360 8.0 19.0 0.00 0.13 0.01 51 1013.2
20260510171601 72 360 7.0 16.0 0.00 0.13 0.01 49 1013.1
20260510170108 72 360 4.0 14.0 0.00 0.13 0.01 51 1013.0
20260510164557 72 298 8.0 19.0 0.00 0.13 0.01 50 1012.8
20260510163058 73 284 11.0 18.0 0.00 0.13 0.01 50 1012.8
20260510161555 73 360 10.0 18.0 0.00 0.13 0.01 49 1012.7
20260510160056 73 360 13.0 23.0 0.00 0.13 0.01 48 1012.9
20260510154553 73 360 6.0 17.0 0.00 0.13 0.01 49 1012.7
20260510153052 73 360 11.0 19.0 0.00 0.13 0.01 49 1012.6
20260510151552 74 360 9.0 20.0 0.00 0.13 0.01 49 1012.5
20260510150051 73 360 11.0 19.0 0.00 0.13 0.01 49 1012.6
20260510144552 74 360 9.0 19.0 0.00 0.13 0.01 49 1012.6
20260510143049 73 360 11.0 19.0 0.00 0.13 0.01 50 1012.6
20260510141556 74 360 7.0 22.0 0.00 0.13 0.01 49 1012.6
20260510140052 74 277 7.0 19.0 0.00 0.13 0.01 49 1012.3
20260510134554 74 289 9.0 24.0 0.00 0.13 0.01 50 1012.4
20260510133100 73 281 11.0 23.0 0.00 0.13 0.01 51 1012.2
20260510131554 73 319 14.0 24.0 0.00 0.13 0.01 51 1012.5
20260510130043 73 328 10.0 21.0 0.00 0.13 0.01 52 1012.5
20260510124543 73 331 10.0 21.0 0.00 0.13 0.01 52 1012.5
20260510123055 73 279 10.0 20.0 0.00 0.13 0.01 51 1012.5
20260510121539 72 323 10.0 25.0 0.00 0.13 0.01 53 1012.3
20260510120138 72 298 10.0 20.0 0.00 0.13 0.01 53 1012.6
20260510114538 72 281 8.0 18.0 0.00 0.13 0.01 54 1012.7
20260510113043 73 281 11.0 20.0 0.00 0.13 0.01 52 1012.8
20260510111535 73 268 8.0 20.0 0.00 0.13 0.01 53 1012.7
20260510110034 72 279 11.0 21.0 0.00 0.13 0.01 53 1012.7
20260510104533 72 360 13.0 23.0 0.00 0.13 0.01 54 1012.6
20260510103031 72 360 10.0 24.0 0.00 0.13 0.01 54 1012.5
20260510101528 71 360 5.0 21.0 0.00 0.13 0.01 56 1012.6
20260510100026 71 279 13.0 20.0 0.00 0.13 0.01 57 1012.4
20260510094523 70 288 10.0 15.0 0.00 0.13 0.01 57 1012.4
20260510093021 70 284 8.0 20.0 0.00 0.13 0.01 58 1012.2
20260510091520 70 286 7.0 16.0 0.00 0.13 0.01 59 1012.2
20260510090018 69 294 11.0 21.0 0.00 0.13 0.01 59 1012.0
20260510084516 70 288 4.0 14.0 0.00 0.13 0.01 59 1012.1
20260510083014 70 279 9.0 17.0 0.00 0.13 0.01 59 1011.9
20260510081510 69 360 9.0 15.0 0.00 0.13 0.01 60 1011.8
20260510080007 68 360 8.0 16.0 0.00 0.13 0.01 60 1011.7
20260510074505 68 360 6.0 14.0 0.00 0.13 0.01 61 1011.5
20260510073006 68 325 9.0 14.0 0.00 0.13 0.01 61 1011.6
20260510071609 68 304 7.0 18.0 0.00 0.13 0.01 61 1011.5
20260510070057 67 333 5.0 12.0 0.00 0.13 0.01 62 1011.2
20260510064601 67 292 8.0 13.0 0.00 0.13 0.01 62 1011.2
20260510063058 67 287 6.0 13.0 0.00 0.13 0.01 63 1011.0
20260510061551 67 316 8.0 13.0 0.00 0.13 0.01 62 1010.9
20260510060050 67 307 5.0 12.0 0.00 0.13 0.01 61 1010.7
20260510054549 66 329 6.0 11.0 0.00 0.13 0.01 62 1010.6
20260510053046 66 336 4.0 9.0 0.00 0.13 0.01 63 1010.6
20260510051546 66 15 1.0 8.0 0.00 0.13 0.01 64 1010.6
20260510050044 66 338 2.0 13.0 0.00 0.13 0.01 64 1010.4
20260510044549 66 285 4.0 11.0 0.00 0.13 0.01 65 1010.2
20260510043041 66 329 2.0 6.0 0.00 0.13 0.01 64 1010.0
20260510041542 66 290 1.0 4.0 0.00 0.13 0.01 63 1009.8
20260510040038 66 310 0.0 5.0 0.00 0.13 0.01 63 1009.8
20260510034538 66 292 5.0 15.0 0.00 0.13 0.01 64 1009.6
20260510033039 65 329 5.0 10.0 0.00 0.13 0.01 68 1009.6
20260510031536 64 19 2.0 4.0 0.00 0.13 0.01 71 1009.6
20260510030033 65 273 1.0 6.0 0.00 0.13 0.01 71 1009.7
20260510024532 65 250 1.0 3.0 0.00 0.13 0.01 71 1009.8
20260510023032 65 250 0.0 2.0 0.00 0.13 0.01 70 1009.7
20260510021536 65 250 0.0 3.0 0.00 0.13 0.01 70 1009.7
20260510020029 65 176 0.0 2.0 0.00 0.13 0.01 70 1009.7
20260510014527 65 176 0.0 3.0 0.00 0.13 0.01 69 1009.8
20260510013024 65 195 1.0 4.0 0.00 0.13 0.01 69 1009.9
20260510011522 66 195 0.0 4.0 0.00 0.13 0.01 69 1010.1
20260510010022 66 189 1.0 7.0 0.00 0.13 0.01 68 1010.0
20260510004520 66 192 2.0 9.0 0.00 0.13 0.01 68 1010.3
20260510003023 66 273 2.0 7.0 0.00 0.13 0.01 67 1010.3
20260510001517 66 163 2.0 10.0 0.00 0.13 0.01 67 1010.2
20260510000019 66 92 2.0 7.0 0.00 0.13 0.01 67 1010.6
20260509234514 66 171 5.0 11.0 0.01 0.13 0.01 66 1010.5
20260509233012 67 160 4.0 12.0 0.01 0.13 0.01 65 1010.5
20260509231511 67 173 3.0 11.0 0.01 0.13 0.01 63 1010.8
20260509230010 67 194 5.0 14.0 0.01 0.13 0.01 61 1010.9
20260509224508 67 213 4.0 10.0 0.00 0.12 0.00 62 1011.2
20260509223004 67 211 2.0 11.0 0.00 0.12 0.00 62 1010.8
20260509221502 67 140 2.0 8.0 0.00 0.12 0.00 61 1010.5
20260509214608 67 164 3.0 9.0 0.00 0.12 0.12 61 1010.8
20260509213059 67 137 3.0 10.0 0.00 0.12 0.12 60 1011.1
20260509211600 67 192 2.0 14.0 0.00 0.12 0.12 59 1011.0
20260509210114 67 159 3.0 9.0 0.00 0.12 0.12 58 1010.7
20260509204559 67 233 2.0 10.0 0.00 0.12 0.12 57 1010.6
20260509203055 67 167 2.0 7.0 0.03 0.12 0.12 56 1010.1
20260509201600 67 137 7.0 11.0 0.08 0.12 0.12 58 1009.7
20260509194555 65 81 6.0 12.0 0.12 0.12 0.12 64 1009.9
20260509193052 66 156 1.0 15.0 0.09 0.09 0.09 63 1009.7